Regional Weather Roundup
Issued by NWS

Home | Current Version | Previous Version | Graphics & Text | Print | Product List | Glossary On
Versions: 1 2 3 4 5 6 7 8 9 10 11 12 13 14 15 16 17 18 19 20 21 22 23 24 25 26 27 28 29 30 31 32 33 34 35 36 37 38 39 40 41 42 43 44 45 46 47 48 49 50
000
ASUS45 KTFX 230519
RWRMT
MONTANA HOURLY WEATHER ROUNDUP
NATIONAL WEATHER SERVICE GREAT FALLS MT
1119 PM MDT TUE APR 22 2014

NOTE: "FAIR" INDICATES FEW OR NO CLOUDS BELOW 12000 FEET WITH NO
SIGNIFICANT WEATHER AND/OR OBSTRUCTIONS TO VISIBILITY.

* THESE STATIONS ARE NOT UNDER NWS QUALITY CONTROL. THEY DO NOT
   REPORT WEATHER SUCH AS PRECIPITATION OR FOG.

MTZ001>007-043-230600-
WEST OF THE DIVIDE
CITY           SKY/WX    TMP DP  RH WIND       PRES   REMARKS
KALISPELL      CLOUDY    43  36  76 W7        29.67R
MISSOULA       CLOUDY    41  34  76 W9        29.77R
BUTTE          LGT SNOW  34  30  85 NW16      29.66R VSB 1    WCI  24
MULLAN PASS    CLOUDY    27  25  92 SW9       29.72F WCI  18
* ESSEX        N/A       38  36  93 SW1        N/A
* LINCOLN      N/A       38  36  93 S5G10      N/A   WCI  34
* LOOKOUT PASS N/A       35  27  73 SE6G12     N/A   WCI  30
* POLSON       N/A       37  36  96 E1         N/A
* RONAN APT    CLOUDY    43  34  71 SW8        N/A
* SEELEY LAKE  N/A       36  32  85 W6G15      N/A   WCI  31
* THOMP F APT  CLOUDY    34  34 100 N4G11      N/A
$$

MTZ008-052>055-230600-
SOUTHWEST MONTANA
CITY           SKY/WX    TMP DP  RH WIND       PRES   REMARKS
BOZEMAN        LGT RAIN  39  37  93 SW7       29.61S WCI  34
DILLON         LGT RAIN  37  34  89 SW16      29.64R WCI  28
W YELLOWSTONE  N/A       33  32  96 SE2G15     N/A
* THREE FORKS  MOCLDY    43  39  86 SW9        N/A
* BOULDER HILL N/A       36  33  89 N1         N/A
* MONIDA PASS  N/A       32  32 100 NW10G19    N/A   WCI  24
* RAYNOLDS PAS N/A       34  19  54 SE12G20    N/A   WCI  25
* WHITEHALL    N/A       42  40  93 SW6        N/A
* WISE RIVER   N/A       35  32  89 W13G21     N/A   WCI  26
$$

MTZ009>010-012-014-046-048-049-054-230600-
EAST SLOPES AND CENTRAL MONTANA
CITY           SKY/WX    TMP DP  RH WIND       PRES   REMARKS
CUT BANK       LGT RAIN  43  43 100 W9        29.51F
GREAT FALLS    LGT RAIN  43  41  93 NW6       29.54F
HELENA         CLOUDY    43  36  76 W15G23    29.58S
MALMSTROM AFB  LGT RAIN  45  39  80 W9        29.52F
* CONRAD       CLOUDY    43  43 100 W5         N/A
* DEARBORN     N/A       45  40  83 S1         N/A
* EAST GLACIER N/A       40  27  60 W18G27     N/A   WCI  31
* MONARCH      N/A       38  34  86 W8         N/A   WCI  32
* PENDROY      N/A       42  36  79 NW12G17    N/A
* ROGERS PASS  N/A       34  32  92 E9G16      N/A   WCI  27
* SAINT MARY   N/A       38  30  73 S8G23      N/A   WCI  32
* SWEET GRASS  N/A       42  42 100 NW12       N/A
* WHITE SULPH  N/A       38  36  93 NW7G15     N/A   WCI  33
$$

MTZ011-013-016-021-035-040-045-047-050-051-230600-
NORTH CENTRAL MONTANA
CITY           SKY/WX    TMP DP  RH WIND       PRES   REMARKS
HAVRE          RAIN      48  46  93 W6        29.46R
LEWISTOWN      LGT RAIN  45  45 100 NW17G29   29.47R
* CHINOOK      CLOUDY    54  52  93 W5        29.43R VSB 2 1/2
* FORT BENTON  CLOUDY    46  43  89 W14       29.52F
* MALTA APT    CLOUDY    63  36  37 E13G24    29.40R
* CHESTER      N/A       45  42  89 W18G29     N/A
* DENTON       N/A       45  43  93 NW20G30    N/A
* GEYSER       N/A       42  40  93 SW17G23    N/A
* JUDITH GAP   N/A       44  43  96 N25        N/A
* LOMA         N/A       47  43  86 W16G22     N/A
$$

MTZ017>020-022>027-061-062-230600-
NORTHEAST MONTANA
CITY           SKY/WX    TMP DP  RH WIND       PRES   REMARKS
GLASGOW        PTCLDY    59  34  39 E25G33    29.43F
GLENDIVE       CLOUDY    55  30  39 E21       29.50F
JORDAN         MOCLDY    61  36  39 E17G25    29.38F
SIDNEY         MOCLDY    57  30  36 E8G21     29.58F
WOLF POINT     CLOUDY    63  30  29 E21       29.49F
* BEAVER HILL  N/A       55  31  40 E31G41     N/A
* CIRCLE       N/A       59  35  41 E10G24     N/A
* LINDSAY DVD  N/A       54  33  45 E22G30     N/A
* NAVAJO       N/A       54  31  42 E15G20     N/A
* SACO         N/A       62  34  35 E27G34     N/A
$$

MTZ028>042-056>058-230600-
SOUTHCENTRAL AND SOUTHEAST MONTANA
CITY           SKY/WX    TMP DP  RH WIND       PRES   REMARKS
BAKER          CLOUDY    55  32  42 SE25G32   29.51F
BILLINGS       MOCLDY    63  37  38 W12       29.35R
LIVINGSTON     CLOUDY    41 N/A N/A W22G29    29.54S
MILES CITY     CLOUDY    63  37  38 E9        29.39F
* LAUREL APT   MOCLDY    57  39  51 W20G25     N/A
* ROUNDUP APT  CLOUDY    63  32  31 N/A        N/A
* HYSHAM       N/A       61  35  38 E8G13      N/A
* LAME DEER    N/A       61  39  44 S11G16     N/A
* REED POINT   N/A       50  37  61 W30G42     N/A
* ROSCOE HILL  N/A       58  28  32 S16        N/A
$$

REGIONAL REPORTS...DAKOTAS
CITY           SKY/WX    TMP DP  RH WIND       PRES   REMARKS
WILLISTON      CLOUDY    57  30  36 E14G26    29.63F
DICKINSON      CLOUDY    54  30  40 E23G31    29.57F
CROSBY         CLEAR     50  32  50 E18G23    29.69F
TIOGA          CLEAR     50  32  50 E18G25    29.72F
WATFORD CITY   PTCLDY    55  30  39 SE29G35   29.59F
BISMARCK       CLOUDY    57  32  39 E20G28    29.74S
GRAND FORKS    MOCLDY    48  28  46 E15       29.97F
FARGO          PTCLDY    50  30  46 E13       29.97S
BUFFALO SD     CLOUDY    55  34  45 E16       29.45F
RAPID CITY     CLOUDY    61  45  56 S9        29.58F
$$

REGIONAL REPORTS...WYOMING/IDAHO/WASHINGTON
CITY           SKY/WX    TMP DP  RH WIND       PRES   REMARKS
GILLETTE       CLOUDY    55  43  64 S21       29.48F
SHERIDAN       MOCLDY    59  41  51 SW13G18   29.38F
CODY           MOCLDY    57  36  46 SW16G24   29.44S
YELLOWSTONE LA CLOUDY    30  27  89 VRB6      29.68S WCI  24
SALMON         CLOUDY    41  28  60 N9        29.73R
MULLAN PASS    CLOUDY    27  25  92 SW9       29.72S WCI  18
SAND POINT     MOCLDY    37  37 100 S8        29.75S WCI  31
SPOKANE        PTCLDY    37  28  70 SW12      29.78R WCI  29
$$

REGIONAL REPORTS...ALBERTA
CITY           SKY/WX    TMP DP  RH WIND       PRES   REMARKS
CALGARY        LGT RAIN  45  37  74 SE12      29.44F
LETHBRIDGE     CLOUDY    46  36  68 W18       29.46F
MEDICINE HAT   RAIN      50  46  86 S6        29.43R
EDMONTON       CLOUDY    52  36  55 NE12      29.43F
WATERTON GATE  N/A       45  27  49 SW17G30    N/A
CARDSTON       N/A       45  30  56 W12G17     N/A
MILK RIVER     N/A       43  39  86 NW12       N/A
$$

REGIONAL REPORTS...SASKATCHEWAN
CITY           SKY/WX    TMP DP  RH WIND       PRES   REMARKS
SWIFT CURRENT  MOCLDY    55  30  39 SE26G38   29.46F
REGINA         PTCLDY    50  34  54 E26G35    29.69F
VAL MARIE      N/A       61  32  34 SE25G35    N/A
ASSINIBOIA     N/A       52  34  50 E21        N/A
CORONACH       N/A       55  32  42 E20G28     N/A

$$




USA.gov is the U.S. government's official web portal to all federal, state and local government web resources and services.